Zurück zum Katalog

STARLINK-34072

AktivKommunikationVLEO
NORAD 64101·PAYLOAD·🇺🇸 United States

Gestartet May 23, 2025 von Vandenberg Space Force Base

Loading…

Nächste Überflüge (nächste 24 Stunden)

TLE

AktuellSource: CelesTrak SupGP

Epoche: Sep 14, 2026, 22:24 UTC

1 64101C 25110F   26257.93381944  .00021094  00000+0  67819-3 0  2570
2 64101  53.1586 226.4047 0001455  89.0814 338.9453 15.31697994    12

Verfolge STARLINK-34072 in Echtzeit mit AllMySat

Download on the App Store